Ailine Elizabeth — WCX4766 — position and weather

sailwx.info

Track history (hours):
 
Tides and Currents Weather Stations Pressure Air Temp Water Temp Dewpoint Dewpoint Depression Visibility Wind Speed Wind Dir Waves Ship Positions

Ailine Elizabeth

Owner: MARINE EXPRESS INC, Pittsburg, CA. More information available from US FCC via Universal Licensing System and Coast Guard Vessel Documentation Center.

Last reported at 2018-Jun-19 16:28 UTC. Time now 2018-Jun-21 08:45 UTC.
Position N 37°47' W 122°17'.

Length 25 m; draft 2 m.

MMSI: 367179250.

Date/timePositionNaut miles runAvg speedWind from/ knotsBaromVisibWave heightAir tempDewpointWater temp
2018-Jun-19 16:28N 37°47' W 122°17'0 0.0
2018-Jun-19 00:17N 37°47' W 122°17'1 3.1
2018-Jun-19 00:00N 37°48' W 122°18'3 5.7
2018-Jun-18 23:30N 37°46' W 122°22'4 7.3
2018-Jun-18 23:01N 37°47' W 122°17'1 2.3
2018-Jun-18 22:30N 37°48' W 122°19'0 0.7
2018-Jun-18 22:00N 37°48' W 122°19'1 3.0
2018-Jun-18 21:30N 37°47' W 122°17'0 0.0
2018-Jun-18 19:46N 37°47' W 122°17'311.2
2018-Jun-18 19:30N 37°48' W 122°21'510.3
2018-Jun-18 19:00N 37°43' W 122°19'4 8.8
2018-Jun-18 18:30N 37°47' W 122°20'0 0.2
2018-Jun-18 18:00N 37°47' W 122°20'1 1.6
2018-Jun-18 17:31N 37°47' W 122°20'3 3.6
2018-Jun-18 16:47N 37°47' W 122°17'2 8.7
2018-Jun-18 16:30N 37°47' W 122°20'5 8.5
2018-Jun-18 15:58N 37°43' W 122°19'612.2
2018-Jun-18 15:30N 37°48' W 122°21'3 6.2
2018-Jun-18 15:01N 37°48' W 122°18'4 9.0
2018-Jun-18 14:30N 37°47' W 122°23'1 2.1
2018-Jun-18 14:00N 37°46' W 122°23'0 0.2
2018-Jun-18 13:30N 37°46' W 122°23'0 0.1
2018-Jun-18 13:00N 37°46' W 122°23'0 0.2
2018-Jun-18 12:30N 37°46' W 122°23'0 0.0
2018-Jun-18 11:59N 37°46' W 122°23'0 0.1
2018-Jun-18 11:24N 37°46' W 122°23'1 2.6
2018-Jun-18 11:00N 37°46' W 122°22'4 0.3
2018-Jun-17 21:08N 37°47' W 122°17'1 6.4
2018-Jun-17 21:01N 37°48' W 122°18'3 6.2
2018-Jun-17 20:30N 37°45' W 122°21'0 0.0
2018-Jun-17 20:00N 37°45' W 122°21'4 7.6
2018-Jun-17 19:30N 37°47' W 122°17'0 0.0
2018-Jun-16 03:22N 37°47' W 122°17'412.5
2018-Jun-16 03:01N 37°47' W 122°23'1 1.1
2018-Jun-16 02:30N 37°47' W 122°23'0 0.0
2018-Jun-16 02:00N 37°47' W 122°23'0 0.0
2018-Jun-16 01:30N 37°47' W 122°23'0 0.4
2018-Jun-16 01:00N 37°47' W 122°23'0 0.4
2018-Jun-16 00:30N 37°47' W 122°23'0 0.0
2018-Jun-16 00:00N 37°47' W 122°23'1 2.5
2018-Jun-15 23:30N 37°46' W 122°22'1 2.5
2018-Jun-15 23:00N 37°47' W 122°23'0 0.0
2018-Jun-15 22:30N 37°47' W 122°23'4 7.2
2018-Jun-15 22:01N 37°48' W 122°19'1 0.0
2018-Jun-15 04:24N 37°48' W 122°18'410.4
2018-Jun-15 04:00N 37°47' W 122°23'0 0.4
2018-Jun-15 03:30N 37°47' W 122°23'0 0.0
2018-Jun-15 03:00N 37°47' W 122°23'0 0.0
2018-Jun-15 02:30N 37°47' W 122°23'0 0.0
2018-Jun-15 02:00N 37°47' W 122°23'0 0.0
2018-Jun-15 01:30N 37°47' W 122°23'1 1.4
2018-Jun-15 01:00N 37°47' W 122°22'1 1.4
2018-Jun-15 00:31N 37°47' W 122°23'0 0.0
2018-Jun-15 00:00N 37°47' W 122°23'0 0.1
2018-Jun-14 23:30N 37°47' W 122°23'0 0.1
2018-Jun-14 22:59N 37°47' W 122°23'0 0.0
2018-Jun-14 22:30N 37°47' W 122°23'4 7.5
2018-Jun-14 22:00N 37°48' W 122°18'1 0.4
2018-Jun-14 19:44N 37°47' W 122°17'210.1
2018-Jun-14 19:30N 37°48' W 122°20'2 4.5
2018-Jun-14 19:00N 37°47' W 122°23'0 0.7
2018-Jun-14 18:30N 37°47' W 122°23'5 9.3
2018-Jun-14 18:00N 37°48' W 122°17'0 0.0
2018-Jun-13 11:52N 37°48' W 122°18'3 7.6
2018-Jun-13 11:30N 37°46' W 122°21'0 0.4
2018-Jun-13 11:00N 37°46' W 122°21'3 0.1
2018-Jun-11 20:07N 37°47' W 122°17'0 2.2
2018-Jun-11 20:00N 37°48' W 122°18'4 7.1
2018-Jun-11 19:24N 37°44' W 122°20'410.4
2018-Jun-11 19:00N 37°48' W 122°20'1 1.1
2018-Jun-11 18:31N 37°48' W 122°20'510.6
2018-Jun-11 18:00N 37°42' W 122°19'511.0
2018-Jun-11 17:31N 37°48' W 122°18'2 3.9
2018-Jun-11 17:00N 37°47' W 122°21'1 1.5
2018-Jun-11 16:30N 37°46' W 122°21'0 0.3
2018-Jun-11 16:00N 37°46' W 122°21'2 5.1
2018-Jun-11 15:30N 37°48' W 122°18'1 0.0
2018-Jun-10 02:51N 37°47' W 122°17'3 9.0
2018-Jun-10 02:30N 37°49' W 122°21'611.9
2018-Jun-10 02:00N 37°54' W 122°25'2 3.4
2018-Jun-10 01:30N 37°55' W 122°25'0 0.5
2018-Jun-10 01:00N 37°55' W 122°25'0 0.9
2018-Jun-10 00:30N 37°55' W 122°25'714.2
2018-Jun-10 00:00N 37°48' W 122°21'3 1.5
2018-Jun-09 22:08N 37°47' W 122°17'1 5.1
2018-Jun-09 22:00N 37°48' W 122°18'5 8.8
2018-Jun-09 21:30N 37°43' W 122°20'0 0.0
2018-Jun-09 21:00N 37°43' W 122°20'5 9.0
2018-Jun-09 20:30N 37°48' W 122°18'4 7.6
2018-Jun-09 20:00N 37°50' W 122°22'611.0
2018-Jun-09 19:28N 37°55' W 122°26'1 2.5
2018-Jun-09 19:00N 37°56' W 122°27'1 2.4
2018-Jun-09 18:30N 37°55' W 122°26'510.0
2018-Jun-09 18:01N 37°51' W 122°23'510.4
2018-Jun-09 17:30N 37°47' W 122°17'  
Track history (hours):
 
Tides and Currents Weather Stations Pressure Air Temp Water Temp Dewpoint Dewpoint Depression Visibility Wind Speed Wind Dir Waves Ship Positions

Ailine Elizabeth

Owner: MARINE EXPRESS INC, Pittsburg, CA. More information available from US FCC via Universal Licensing System and Coast Guard Vessel Documentation Center.

Last reported at 2018-Jun-19 16:28 UTC. Time now 2018-Jun-21 08:45 UTC.
Position N 37°47' W 122°17'.

Length 25 m; draft 2 m.

MMSI: 367179250.

Date/timePositionNaut miles runAvg speedWind from/ knotsBaromVisibWave heightAir tempDewpointWater temp
2018-Jun-19 16:28N 37°47' W 122°17'0 0.0
2018-Jun-19 00:17N 37°47' W 122°17'1 3.1
2018-Jun-19 00:00N 37°48' W 122°18'3 5.7
2018-Jun-18 23:30N 37°46' W 122°22'4 7.3
2018-Jun-18 23:01N 37°47' W 122°17'1 2.3
2018-Jun-18 22:30N 37°48' W 122°19'0 0.7
2018-Jun-18 22:00N 37°48' W 122°19'1 3.0
2018-Jun-18 21:30N 37°47' W 122°17'0 0.0
2018-Jun-18 19:46N 37°47' W 122°17'311.2
2018-Jun-18 19:30N 37°48' W 122°21'510.3
2018-Jun-18 19:00N 37°43' W 122°19'4 8.8
2018-Jun-18 18:30N 37°47' W 122°20'0 0.2
2018-Jun-18 18:00N 37°47' W 122°20'1 1.6
2018-Jun-18 17:31N 37°47' W 122°20'3 3.6
2018-Jun-18 16:47N 37°47' W 122°17'2 8.7
2018-Jun-18 16:30N 37°47' W 122°20'5 8.5
2018-Jun-18 15:58N 37°43' W 122°19'612.2
2018-Jun-18 15:30N 37°48' W 122°21'3 6.2
2018-Jun-18 15:01N 37°48' W 122°18'4 9.0
2018-Jun-18 14:30N 37°47' W 122°23'1 2.1
2018-Jun-18 14:00N 37°46' W 122°23'0 0.2
2018-Jun-18 13:30N 37°46' W 122°23'0 0.1
2018-Jun-18 13:00N 37°46' W 122°23'0 0.2
2018-Jun-18 12:30N 37°46' W 122°23'0 0.0
2018-Jun-18 11:59N 37°46' W 122°23'0 0.1
2018-Jun-18 11:24N 37°46' W 122°23'1 2.6
2018-Jun-18 11:00N 37°46' W 122°22'4 0.3
2018-Jun-17 21:08N 37°47' W 122°17'1 6.4
2018-Jun-17 21:01N 37°48' W 122°18'3 6.2
2018-Jun-17 20:30N 37°45' W 122°21'0 0.0
2018-Jun-17 20:00N 37°45' W 122°21'4 7.6
2018-Jun-17 19:30N 37°47' W 122°17'0 0.0
2018-Jun-16 03:22N 37°47' W 122°17'412.5
2018-Jun-16 03:01N 37°47' W 122°23'1 1.1
2018-Jun-16 02:30N 37°47' W 122°23'0 0.0
2018-Jun-16 02:00N 37°47' W 122°23'0 0.0
2018-Jun-16 01:30N 37°47' W 122°23'0 0.4
2018-Jun-16 01:00N 37°47' W 122°23'0 0.4
2018-Jun-16 00:30N 37°47' W 122°23'0 0.0
2018-Jun-16 00:00N 37°47' W 122°23'1 2.5
2018-Jun-15 23:30N 37°46' W 122°22'1 2.5
2018-Jun-15 23:00N 37°47' W 122°23'0 0.0
2018-Jun-15 22:30N 37°47' W 122°23'4 7.2
2018-Jun-15 22:01N 37°48' W 122°19'1 0.0
2018-Jun-15 04:24N 37°48' W 122°18'410.4
2018-Jun-15 04:00N 37°47' W 122°23'0 0.4
2018-Jun-15 03:30N 37°47' W 122°23'0 0.0
2018-Jun-15 03:00N 37°47' W 122°23'0 0.0
2018-Jun-15 02:30N 37°47' W 122°23'0 0.0
2018-Jun-15 02:00N 37°47' W 122°23'0 0.0
2018-Jun-15 01:30N 37°47' W 122°23'1 1.4
2018-Jun-15 01:00N 37°47' W 122°22'1 1.4
2018-Jun-15 00:31N 37°47' W 122°23'0 0.0
2018-Jun-15 00:00N 37°47' W 122°23'0 0.1
2018-Jun-14 23:30N 37°47' W 122°23'0 0.1
2018-Jun-14 22:59N 37°47' W 122°23'0 0.0
2018-Jun-14 22:30N 37°47' W 122°23'4 7.5
2018-Jun-14 22:00N 37°48' W 122°18'1 0.4
2018-Jun-14 19:44N 37°47' W 122°17'210.1
2018-Jun-14 19:30N 37°48' W 122°20'2 4.5
2018-Jun-14 19:00N 37°47' W 122°23'0 0.7
2018-Jun-14 18:30N 37°47' W 122°23'5 9.3
2018-Jun-14 18:00N 37°48' W 122°17'0 0.0
2018-Jun-13 11:52N 37°48' W 122°18'3 7.6
2018-Jun-13 11:30N 37°46' W 122°21'0 0.4
2018-Jun-13 11:00N 37°46' W 122°21'3 0.1
2018-Jun-11 20:07N 37°47' W 122°17'0 2.2
2018-Jun-11 20:00N 37°48' W 122°18'4 7.1
2018-Jun-11 19:24N 37°44' W 122°20'410.4
2018-Jun-11 19:00N 37°48' W 122°20'1 1.1
2018-Jun-11 18:31N 37°48' W 122°20'510.6
2018-Jun-11 18:00N 37°42' W 122°19'511.0
2018-Jun-11 17:31N 37°48' W 122°18'2 3.9
2018-Jun-11 17:00N 37°47' W 122°21'1 1.5
2018-Jun-11 16:30N 37°46' W 122°21'0 0.3
2018-Jun-11 16:00N 37°46' W 122°21'2 5.1
2018-Jun-11 15:30N 37°48' W 122°18'1 0.0
2018-Jun-10 02:51N 37°47' W 122°17'3 9.0
2018-Jun-10 02:30N 37°49' W 122°21'611.9
2018-Jun-10 02:00N 37°54' W 122°25'2 3.4
2018-Jun-10 01:30N 37°55' W 122°25'0 0.5
2018-Jun-10 01:00N 37°55' W 122°25'0 0.9
2018-Jun-10 00:30N 37°55' W 122°25'714.2
2018-Jun-10 00:00N 37°48' W 122°21'3 1.5
2018-Jun-09 22:08N 37°47' W 122°17'1 5.1
2018-Jun-09 22:00N 37°48' W 122°18'5 8.8
2018-Jun-09 21:30N 37°43' W 122°20'0 0.0
2018-Jun-09 21:00N 37°43' W 122°20'5 9.0
2018-Jun-09 20:30N 37°48' W 122°18'4 7.6
2018-Jun-09 20:00N 37°50' W 122°22'611.0
2018-Jun-09 19:28N 37°55' W 122°26'1 2.5
2018-Jun-09 19:00N 37°56' W 122°27'1 2.4
2018-Jun-09 18:30N 37°55' W 122°26'510.0
2018-Jun-09 18:01N 37°51' W 122°23'510.4
2018-Jun-09 17:30N 37°47' W 122°17'  

Dump ship's entire track history